Regional Weather Roundup
Issued by NWS

Home | Current Version | Previous Version | Text Only | Print | Product List | Glossary On
Versions: 1 2 3 4 5 6 7 8 9 10 11 12 13 14 15 16 17 18 19 20 21 22 23 24 25 26 27 28
000
ASUS42 KKEY 270010
RWRKEY

FLORIDA REGIONAL WEATHER ROUNDUP FOR THE FLORIDA KEYS
NATIONAL WEATHER SERVICE KEY WEST FLORIDA
800 PM EDT WED APR 26 2017

...SOUTH FLORIDA AND THE KEYS...

CITY           SKY/WX    TMP DP  RH WIND       PRES   REMARKS
FORT MYERS     CLEAR     80  69  69 SW6       29.85R
SW REGIONAL AP CLEAR     79  68  69 W8        29.85R
NAPLES         CLEAR     80  70  71 S8        29.85R
MIAMI          PTCLDY    79  71  76 SE10      29.88R
WEST KENDALL   PTCLDY    79  71  76 SE8       29.87R
HOMESTEAD      CLEAR     78  75  91 SE7       29.86R
MARATHON       CLEAR     80  75  84 E7        29.85R
BOCA CHICA NAS PTCLDY    79  73  82 E13       29.85R
KEY WEST INTL  CLEAR     79  74  84 E12       29.85R

...INTERNATIONAL WEATHER...

CITY           SKY/WX    TMP DP  RH WIND       PRES   REMARKS
NASSAU BAHAMAS NOT AVBL
CANCUN MEXICO  MOCLDY    81  75  83 SE12      29.76R
COZUMEL MEXICO PTCLDY    82  68  61 S10       29.73S

ADJACENT COASTAL WATERS...

STATION/POSITION TIME  SKY/WX   TEMP    WIND        PRES    WAVE
                                AIR SEA DIR/SP/G            HT/PER
                 (UTC)          (F)     (DEG/KT/KT) (MB)    (FT/S)
PULASKI SHOAL LI 0000            78     110/ 11/ 12 1010.4R
SAND KEY         2350            78     110/ 10/ 11 1011.2R
LONG KEY         2300            79 81  110/  9/ 10 1010.7F
MOLASSES REEF    0000            78 78  100/  9/ 12 1011.5R
FOWEY ROCKS      0000            78 78  110/ 15/ 17 1012.1R
Buoy 42097       0000                                 N/A     2/ 4

$$




USA.gov is the U.S. government's official web portal to all federal, state and local government web resources and services.